{"data":{"norad_id":64763,"intl_designator":"2025-147J","name":"STARLINK-34534","alt_names":[],"object_type":"PAYLOAD","status":"ACTIVE","operator":null,"country":"US","launch_date":"2025-07-08","launch_site_code":"AFETR","launch_vehicle":null,"mission":null,"orbit_class":"UNKNOWN","rcs_meters":null,"size_class":null,"mass_kg":null,"dimensions":null,"purposes":["comms"],"wikipedia_slug":null,"has_3d_model":false,"image_url":null,"decayed_at":null,"tle_current":{"epoch":"2026-09-20T21:08:00.392640Z","epoch_age_seconds":95067,"freshness":"FRESH","line1":"1 64763U 25147J   26263.88056010  .00022334  00000+0  66999-3 0  9997","line2":"2 64763  53.1569  52.0503 0001579  81.6810 278.4372 15.34407917 68691","mean_motion":15.34407917,"eccentricity":0.0001579,"inclination_deg":53.1569,"raan_deg":52.0503,"arg_perigee_deg":81.681,"mean_anomaly_deg":278.4372,"bstar":0.00066999,"rev_number":6869,"period_min":93.847273860227,"perigee_km":461.59954435745,"apogee_km":463.75987427425,"semimajor_km":6840.8167093158,"source":"CELESTRAK","updated_at":"2026-09-21T09:00:35.437581Z"}}}